Location: Potawatomi Wildlife Park
(41.2308°N, 86.1050°W)
Time: 10:02:24
(UTC-04:00)

Daily predictions for brighter satellites

Satellite Brightness Start Highest point End
(mag) Time Altitude Azimuth Time Altitude Azimuth Time Altitude Azimuth
Cosmos 1833 Rocket 3.4 20:22:55 10° N 20:28:01 34° ENE 20:33:05 10° ESE
Cosmos 1812 Rocket 3.8 20:25:26 10° SSW 20:29:50 77° W 20:34:14 10° N
ALOS 2.3 20:26:04 10° SSE 20:30:39 60° ENE 20:35:17 10° N
Abrixas 2.4 20:29:30 10° WNW 20:32:21 73° SSW 20:35:09 10° SE
RESURS DK-1 3.5 20:31:43 10° NW 20:35:42 48° WSW 20:39:41 10° S
Tiangong 1 3.6 20:34:26 10° WSW 20:36:12 15° SSW 20:37:56 10° S
Cosmos 2278 Rocket 2.5 20:32:21 10° SSW 20:38:01 77° WNW 20:43:45 10° NNE
ATLAS 5 CENTAUR R/B 2.4 20:36:15 10° S 20:40:26 34° ESE 20:44:56 10° NE
Cosmos 1125 Rocket 3.6 20:37:14 10° S 20:42:17 55° ESE 20:47:22 10° NNE
SeaSat 1 2.5 20:38:29 10° SE 20:43:21 65° ENE 20:48:15 10° NNW
Cosmos 1048 Rocket 4.2 20:40:03 10° N 20:45:00 48° ENE 20:49:57 10° SE
GPS 2-05 Rocket1 4.1 20:42:17 10° SW 20:45:23 28° S 20:48:14 12° ESE
Cosmos 1470 4.0 20:42:35 10° SE 20:45:43 22° E 20:48:50 10° NE
Cosmos 1766 Rocket 4.3 20:42:23 10° N 20:46:28 33° ENE 20:50:31 10° SE
Cosmos-2242 3.9 20:44:48 10° SSE 20:48:22 27° E 20:51:58 10° NNE
GP-B 3.9 20:48:06 10° SE 20:52:01 32° E 20:55:58 10° NNE
HJ-1C 3.5 20:51:00 10° S 20:54:24 81° WSW 20:57:50 10° NNW
Cosmos 2297 3.7 20:50:39 10° SSW 20:56:19 70° ESE 21:02:02 10° NNE
SJ-6B 3.7 20:53:44 10° S 20:57:20 49° W 21:01:00 10° NNW
BREEZE-M DEB (TANK) 3.0 20:54:53 10° WSW 20:57:38 89° N 21:04:44 10° ENE
USA 186 2.2 20:58:05 20° E 20:58:36 22° ENE 21:00:27 10° NNE
H-2A R/B 2.7 20:55:30 10° SSE 20:59:23 79° ENE 21:03:21 10° N
Cosmos 1340 Rocket 3.8 20:56:27 10° NNE 20:59:55 27° ENE 21:02:27 15° SE
Resurs 01 Rocket 1.6 20:57:09 10° SSE 21:01:33 80° ENE 21:06:01 10° N
CZ-4B DEB 4.2 21:01:12 18° E 21:02:07 20° ENE 21:04:30 10° NNE
Cosmos 2082 Rocket 2.2 21:02:44 10° NNW 21:08:27 77° ENE 21:14:05 10° SSE
ISS -3.9 21:07:02 10° SW 21:10:15 67° SE 21:12:44 16° ENE
Cosmos 1605 Rocket 4.4 21:04:34 10° SSW 21:10:49 72° W 21:17:13 10° N
Meteor 1-29 3.7 21:10:57 10° NNE 21:14:05 31° E 21:16:41 13° SSE
Cosmos 2100 Rocket 4.1 21:08:42 10° SSE 21:14:49 54° E 21:20:59 10° NNE
Cosmos 1743 Rocket 4.3 21:13:34 10° N 21:17:38 34° ENE 21:19:40 23° ESE
SAR-Lupe-4 3.6 21:16:30 15° SSE 21:19:17 60° ENE 21:22:50 10° N
CZ-3B DEB 4.0 21:12:40 10° WSW 21:22:17 40° NW 21:26:59 10° NE
SL-14 R/B 4.4 21:19:35 10° NNE 21:22:44 23° ENE 21:22:48 23° ENE
COSMOS 2487 2.7 21:19:56 10° NNW 21:23:29 68° WSW 21:26:44 12° S
YAOGAN 6 4.4 21:24:20 17° ENE 21:24:20 17° ENE 21:26:28 10° NNE
Cosmos 1271 Rocket 2.7 21:20:52 10° S 21:24:50 68° E 21:28:51 10° NNE
Cosmos 1758 4.3 21:22:21 10° SSW 21:26:12 48° W 21:30:06 10° N
Cosmos 2251 Rocket 4.2 21:21:39 10° N 21:26:34 36° ENE 21:28:42 26° ESE
H-2A R/B 4.4 21:22:57 10° SW 21:28:52 43° SSE 21:47:58 20° ESE
H-2A R/B 4.4 21:22:57 10° SW 21:28:52 43° SSE 21:47:59 20° ESE
H-2A R/B 4.4 21:22:56 10° SW 21:28:52 43° SSE 21:47:54 20° ESE
H-2A R/B 4.4 21:22:57 10° SW 21:28:52 43° SSE 21:47:57 20° ESE
H-2A R/B 4.4 21:22:57 10° SW 21:28:52 43° SSE 21:48:01 20° ESE
H-2A R/B 4.4 21:22:57 10° SW 21:28:52 43° SSE 21:48:00 20° ESE
H-2A R/B 4.4 21:22:57 10° SW 21:28:53 43° SSE 21:48:02 20° ESE
H-2A R/B 4.4 21:22:56 10° SW 21:28:53 43° SSE 21:47:58 20° ESE
H-2A R/B 4.4 21:22:57 10° SW 21:28:53 43° SSE 21:48:00 20° ESE
H-2A R/B 4.4 21:22:57 10° SW 21:28:53 43° SSE 21:47:59 20° ESE
H-2A R/B 4.4 21:22:57 10° SW 21:28:53 43° SSE 21:47:58 20° ESE
H-2A R/B 4.4 21:22:57 10° SW 21:28:53 43° SSE 21:47:56 20° ESE
Cosmos 1269 Rocket 4.3 21:23:54 10° NNW 21:29:09 67° WSW 21:34:23 10° S
Cosmos 1328 4.5 21:26:24 10° NNE 21:30:01 32° ENE 21:30:24 32° E
Cosmos 372 Rocket 4.2 21:25:14 10° SSW 21:30:20 73° WNW 21:35:31 10° NNE
Cosmos 1674 2.8 21:28:38 10° NNW 21:32:25 74° W 21:36:13 10° S
Cosmos 1953 3.5 21:28:39 10° SSW 21:32:33 45° WNW 21:36:28 10° N
Cosmos 158 Rocket 4.2 21:28:42 10° NNW 21:33:51 73° WSW 21:39:06 10° S
Lacrosse 5 4.0 21:31:24 10° W 21:35:32 25° NNW 21:39:42 10° NNE
USA 215 3.6 21:30:18 10° ENE 21:36:21 39° SE 21:42:21 10° SSW
Cosmos 1408 Rocket 3.9 21:32:57 10° NNW 21:37:24 69° W 21:41:50 10° S
SAR-Lupe-1 4.0 21:36:02 25° SSE 21:38:01 89° W 21:41:37 10° NNW
Cosmos 1802 Rocket 3.9 21:32:32 10° S 21:38:34 64° E 21:44:41 10° NNE
Cosmos 2151 3.8 21:38:29 10° NNE 21:42:00 31° ENE 21:42:00 31° ENE
SPOT 5 4.4 21:42:54 22° ENE 21:43:09 22° ENE 21:47:11 10° NNE
Helios 1B rocket 2.4 21:39:55 10° N 21:44:03 82° WNW 21:48:09 10° SSW
Cosmos 1939 Rocket 3.0 21:42:57 42° SE 21:44:04 58° ENE 21:48:09 10° N
TIMED 4.4 21:44:39 10° SSW 21:49:01 81° ESE 21:53:25 10° NNE
SJ-11-01 4.2 21:48:15 32° SSE 21:50:26 76° ENE 21:55:10 10° N
Cosmos 1842 Rocket 3.5 21:50:28 36° SSE 21:52:05 62° E 21:56:26 10° NNE
Lacrosse 5 rocket 1.1 21:49:45 10° NW 21:53:39 71° SW 21:54:09 60° S
Cosmos 2061 Rocket 4.1 21:49:27 10° S 21:55:52 86° W 22:02:21 10° N
Cosmos 494 Rocket 3.9 21:52:39 10° NNW 21:57:46 67° ENE 21:59:02 48° SE
Cosmos 2369 Rocket 3.7 22:01:46 20° NE 22:01:46 20° NE 22:03:46 10° NE
Cosmos 1459 Rocket 4.2 21:54:19 10° SSW 22:00:34 73° W 22:06:44 10° N
Helios 1A 4.2 22:02:55 15° SSW 22:06:04 39° W 22:10:02 10° NNW
Gblst 52 Del rocket 4.1 22:00:35 10° SW 22:06:28 60° SE 22:07:37 50° E
Cosmos 1184 Rocket 3.5 22:05:31 10° NNW 22:08:25 55° NW 22:08:25 55° NW
Cosmos 2173 Rocket 4.4 22:02:46 10° SSW 22:08:53 64° W 22:15:08 10° N
USA 267 4.4 22:06:11 21° ENE 22:09:16 31° NNE 22:14:50 10° NW
Cosmos 2233 Rocket 4.5 22:10:13 38° ENE 22:10:13 38° ENE 22:15:15 10° NNE
Envisat 3.3 22:08:43 26° S 22:11:32 64° WSW 22:16:35 10° NNW
Cosmos 1833 Rocket 4.1 22:06:51 10° NW 22:11:54 35° WSW 22:16:33 12° SSW
Cosmos 1864 Rocket 4.4 22:11:34 30° S 22:14:51 71° E 22:21:08 10° NNE
NOAA 11 4.4 22:19:30 53° ENE 22:19:30 53° ENE 22:24:47 10° N
ERS-1 Rocket 2.8 22:23:15 75° SSE 22:23:42 90° E 22:28:46 10° NNW
ATLAS 5 CENTAUR R/B 3.6 22:20:49 10° WSW 22:25:05 32° NW 22:29:44 10° NNE
H-2A R/B 3.4 22:31:00 27° NE 22:31:00 27° NE 22:34:09 10° N
Cosmos 1356 Rocket 4.1 22:26:41 10° NNW 22:30:27 49° W 22:30:27 49° W
CZ-3 Stage 3 3.7 22:12:41 10° W 22:36:00 42° SSW 22:37:49 37° S
Cosmos 2221 4.4 22:45:55 23° N 22:45:55 23° N 22:47:37 10° N
ISS -0.8 22:44:20 10° WNW 22:45:26 16° WNW 22:45:26 16° WNW
MetOp-A 4.2 22:49:16 73° NW 22:49:16 73° NW 22:54:09 10° NNW
Cosmos 1725 Rocket 4.4 22:47:24 27° SSW 22:50:47 60° W 22:56:55 10° N
ARGOS 3.6 22:55:16 55° N 22:55:16 55° N 22:59:28 10° NNW
MOS 1-B Rocket 4.4 23:01:31 71° ENE 23:01:37 71° ENE 23:08:31 10° N
USA 215 3.6 23:13:06 10° NE 23:19:31 62° NW 23:25:55 10° WSW
SPOT 5 4.2 23:22:09 41° WNW 23:22:09 41° WNW 23:26:01 10° NNW
Terra 4.1 23:31:05 19° N 23:31:05 19° N 23:32:25 10° N
CZ-3B DEB 4.4 23:32:46 10° NW 23:34:51 12° NNW 23:35:01 12° NNW
Cosmos 2369 Rocket 3.7 23:43:23 33° NW 23:43:23 33° NW 23:47:48 10° N
USA 267 3.9 23:53:31 50° NNW 23:53:31 50° NNW 23:58:12 10° NW
